[[{"header":{"parameterUnit":"m.s-1","parameterCategory":1,"la1":30.2991,"la2":30.254,"lo1":-89.0895,"lo2":-89.0444,"dy":0.0017,"dx":0.0017,"nx":28,"ny":28,"refTime":"2024-04-09T03:00:00:Z","depth":0,"parameterNumber":2,"parameterNumberName":"U-component_of_WINDS"},"data":[0,0,0,0,0,0,0,0,0,0,0,0,0,0,0,0,0,0,0,0,0,0,0,0,0,0,0,0,0,0,0,0,0,0,0,0,0,0,0,0,0,0,0,0,0,0,0,0,0,0,0,0,0,0,0,0,0,0,-7.0207,-7.0209,0,-7.0374,-7.0376,-7.0378,-7.0368,-7.0366,-7.0363,-7.0361,-7.0529,-7.0535,-7.0542,0,0,0,0,0,0,0,0,0,0,0,0,0,-6.9879,-6.9885,-7.0207,-7.0209,-7.0211,-7.0374,-7.0376,-7.0378,-7.0368,-7.0366,-7.0363,-7.036,-7.0527,-7.0535,-7.0543,0,0,0,0,0,0,0,0,0,0,0,0,0,-7.0031,-6.9887,-7.0207,-7.0226,-7.0229,-7.0373,-7.0376,-7.0379,-7.0369,-7.0365,-7.0362,-7.0358,-7.0524,-7.0534,-7.0544,-7.0678,0,0,-7.0575,-7.0579,0,0,0,0,0,0,0,0,-7.0023,-7.0043,-7.0221,-7.0225,-7.0229,-7.0347,-7.0322,-7.0479,-7.037,-7.0316,-7.0361,-7.0357,-7.0471,-7.0485,-7.0524,-7.0686,-7.0693,-7.0576,-7.0582,-7.0586,-7.0589,0,0,0,0,0,0,0,-7.0012,-7.0036,-7.0273,-7.0224,-7.0229,-7.0226,-7.0244,-7.0352,-7.0412,-7.032,-7.032,-7.034,-7.0472,-7.0515,-7.0528,-7.0696,-7.0575,-7.0584,-7.059,-7.0594,-7.0977,-7.0981,0,0,0,0,0,0,-6.9998,-7.0027,-7.0268,-7.0278,-7.0115,-7.0235,-7.0255,-7.0312,-7.041,-7.0422,-7.0343,-7.0339,-7.0499,-7.0516,-7.0534,-7.0697,-7.0586,-7.0595,-7.0601,-7.0973,-7.0978,-7.0983,0,0,0,0,0,0,-6.9991,-7.0019,-7.0261,-7.0153,-7.0183,-7.0244,-7.0309,-7.0318,-7.036,-7.0428,-7.0438,-7.0375,-7.0497,-7.052,-7.0643,-7.0703,-7.06,-7.0609,-7.0968,-7.0975,-7.098,-7.1025,0,0,0,0,0,0,-6.9981,-7.0017,-7.0068,-7.0154,-7.0189,-7.0367,-7.0313,-7.0324,-7.0377,-7.0374,-7.046,-7.0471,-7.0496,-7.0628,-7.0653,-7.0715,-7.0617,-7.0963,-7.0971,-7.0978,-7.1018,-7.1032,-7.1043,0,0,0,0,0,-6.997,-7.0073,-7.0071,-7.01,-7.0255,-7.0371,-7.0391,-7.0418,-7.0382,-7.0435,-7.0479,-7.0469,-7.0693,-7.0641,-7.0669,-7.0734,-7.0959,-7.0969,-7.0978,-7.1012,-7.1029,-7.1043,0,0,0,0,0,0,-6.9991,-7.0085,-7.0083,-7.0218,-7.0287,-7.0369,-7.0435,-7.0434,-7.0513,-7.0506,-7.0536,-7.0556,-7.0679,-7.072,-7.0659,-7.087,-7.0822,-7.0837,-7.0838,-7.0855,-7.0867,-7.0853,-7.0625,0,0,0,0,0,-7.0012,-7.0099,-7.0176,-7.0287,-7.0322,-7.0373,-7.0424,-7.044,-7.0512,-7.054,-7.0593,-7.0662,-7.0749,-7.0805,-7.0888,-7.1026,-7.1044,-7.1085,-7.1098,-7.1108,-7.1119,-7.1195,-7.1214,-7.1013,-7.1013,-7.1013,0,0,-7.0055,-7.0117,-7.017,-7.0294,-7.0348,-7.0437,-7.0397,-7.0492,-7.0558,-7.0554,-7.0673,-7.0715,-7.0795,-7.0926,-7.0986,-7.0963,-7.118,-7.112,-7.1127,-7.1133,-7.1206,-7.1225,-7.1242,-7.1019,-7.1018,-7.1017,0,0,-7.0178,-7.0235,-7.0334,-7.039,-7.0475,-7.0509,-7.0533,-7.0616,-7.0644,-7.0764,-7.0764,-7.0843,-7.0991,-7.1048,-7.1096,-7.1245,-7.1238,-7.1271,-7.1335,-7.1408,-7.1424,-7.1438,-7.1489,-7.1507,-7.1283,-7.1284,-7.1284,0,-7.022,-7.0354,-7.0384,-7.048,-7.0534,-7.0538,-7.0638,-7.0692,-7.0798,-7.0835,-7.081,-7.0997,-7.1051,-7.1194,-7.1231,-7.1271,-7.1298,-7.1259,-7.142,-7.1434,-7.1448,-7.1496,-7.1516,-7.1287,-7.1287,-7.1286,-7.1286,0,-7.0401,-7.0494,-7.0564,-7.0668,-7.0731,-7.0828,-7.0873,-7.0933,-7.0945,-7.0981,-7.1104,-7.117,-7.1267,-7.1303,-7.1314,-7.1449,-7.1432,-7.1413,-7.1364,-7.1469,-7.1516,-7.1535,-7.1292,-7.129,-7.1289,-7.1289,0,0,-7.0537,-7.066,-7.0685,-7.0732,-7.0828,-7.09,-7.0998,-7.1094,-7.1144,-7.122,-7.1302,-7.1429,-7.1412,-7.1467,-7.1486,-7.1551,-7.1662,-7.1524,-7.1526,-7.1545,-7.1813,-7.1824,-7.1846,-7.1661,-7.1665,-7.1668,-7.1806,0,-7.0668,-7.0842,-7.0874,-7.1026,-7.1111,-7.1118,-7.1204,-7.1272,-7.131,-7.1388,-7.143,-7.1519,-7.1491,-7.1524,-7.1589,-7.1635,-7.1716,-7.1626,-7.1735,-7.1739,-7.1711,-7.187,-7.1882,-7.2009,-7.1824,-7.1828,-7.183,0,-7.0842,-7.0922,-7.1083,-7.1168,-7.1205,-7.1281,-7.1372,-7.1448,-7.1525,-7.1548,-7.1612,-7.1623,-7.1726,-7.1676,-7.1817,-7.1755,-7.1803,-7.1833,-7.1838,-7.1846,-7.1787,-7.1879,-7.205,-7.2068,-7.1859,-7.1857,-7.1855,0,-7.0922,-7.1071,-7.1186,-7.1227,-7.133,-7.1383,-7.1428,-7.1503,-7.1559,-7.1639,-7.1675,-7.1766,-7.1815,-7.1886,-7.1922,-7.1882,-7.206,-7.2013,-7.208,-7.2079,-7.2113,-7.211,-7.2291,-7.2151,-7.215,-7.215,-7.215,0,-7.1062,-7.1159,-7.1224,-7.1294,-7.1404,-7.144,-7.1548,-7.1592,-7.1659,-7.1738,-7.1751,-7.1824,-7.187,-7.195,-7.198,-7.2091,-7.2114,-7.2135,-7.2141,-7.2131,-7.2128,-7.216,-7.215,-7.2155,-7.2154,-7.2153,-7.2152,0,-7.1167,-7.1215,-7.1341,-7.1429,-7.1453,-7.153,-7.1605,-7.1674,-7.1713,-7.1813,-7.1839,-7.1901,-7.1997,-7.2041,-7.216,-7.218,-7.2305,-7.2307,-7.2279,-7.228,-7.2344,-7.2336,-7.2548,-7.2577,-7.2421,-7.2422,-7.2423,0,-7.1251,-7.1326,-7.1423,-7.1478,-7.1524,-7.1612,-7.167,-7.171,-7.177,-7.1865,-7.1922,-7.2019,-7.2098,-7.2251,-7.2306,-7.2397,-7.2399,-7.2467,-7.2412,-7.2401,-7.2396,-7.239,-7.2397,-7.2475,-7.2477,-7.2478,-7.2479,0,-7.1395,-7.1415,-7.1498,-7.159,-7.1659,-7.1734,-7.1806,-7.185,-7.1903,-7.1969,-7.2068,-7.2129,-7.2251,-7.2347,-7.2442,-7.2488,-7.2492,-7.2497,-7.2517,-7.2506,-7.2485,-7.2494,-7.2302,-7.2491,-7.2489,-7.2489,-7.2488,-7.2488,-7.149,-7.1557,-7.1636,-7.1728,-7.1788,-7.1857,-7.1925,-7.1975,-7.2058,-7.216,-7.218,-7.2285,-7.2362,-7.2491,-7.2541,-7.2623,-7.2607,-7.2636,-7.2643,-7.2649,-7.2651,-7.2476,-7.2641,-7.2641,-7.2641,-7.2641,-7.264,0,-7.1631,-7.1683,-7.1768,-7.187,-7.1943,-7.1944,-7.2026,-7.2086,-7.2178,-7.2251,-7.2329,-7.2443,-7.2536,-7.26,-7.2695,-7.2749,-7.2753,-7.2772,-7.2766,-7.2776,-7.2661,-7.2633,-7.2767,-7.2767,-7.2767,-7.2767,-7.2767,-7.2767,-7.1713,-7.1826,-7.1857,-7.2,-7.2051,-7.2154,-7.22,-7.2264,-7.2322,-7.2448,-7.2526,-7.2568,-7.2638,-7.2738,-7.2824,-7.2841,-7.2873,-7.2893,-7.2908,-7.2798,-7.2785,-7.2772,-7.2745,-7.29,-7.2901,-7.3016,-7.3017,-7.3018]},{"header":{"parameterUnit":"m.s-1","parameterCategory":1,"la1":30.2991,"la2":30.254,"lo1":-89.0895,"lo2":-89.0444,"dy":0.0017,"dx":0.0017,"nx":28,"ny":28,"refTime":"2024-04-09T03:00:00:Z","depth":0,"parameterNumber":3,"parameterNumberName":"V-component_of_WINDS"},"data":[0,0,0,0,0,0,0,0,0,0,0,0,0,0,0,0,0,0,0,0,0,0,0,0,0,0,0,0,0,0,0,0,0,0,0,0,0,0,0,0,0,0,0,0,0,0,0,0,0,0,0,0,0,0,0,0,0,0,2.9399,2.9399,0,2.9429,2.943,2.943,2.9455,2.9455,2.9455,2.9455,2.9483,2.9484,2.9484,0,0,0,0,0,0,0,0,0,0,0,0,0,2.936,2.936,2.9399,2.9399,2.94,2.9429,2.943,2.943,2.9455,2.9455,2.9455,2.9456,2.9483,2.9484,2.9484,0,0,0,0,0,0,0,0,0,0,0,0,0,2.9382,2.9361,2.9399,2.9415,2.9417,2.9429,2.943,2.943,2.9455,2.9455,2.9455,2.9456,2.9483,2.9484,2.9485,2.9481,0,0,2.9487,2.9487,0,0,0,0,0,0,0,0,2.9381,2.9384,2.9413,2.9414,2.9416,2.9439,2.9426,2.9447,2.9454,2.944,2.9455,2.9456,2.9468,2.947,2.9475,2.9483,2.9484,2.9487,2.9487,2.9488,2.9488,0,0,0,0,0,0,0,2.9379,2.9382,2.9411,2.9413,2.9415,2.9421,2.9424,2.943,2.9451,2.9442,2.9443,2.9447,2.9469,2.9474,2.9476,2.9484,2.9487,2.9488,2.9488,2.9488,2.9494,2.9493,0,0,0,0,0,0,2.9375,2.9381,2.941,2.9412,2.9399,2.9421,2.9425,2.9431,2.9451,2.9455,2.9446,2.9448,2.9473,2.9475,2.9477,2.9476,2.9488,2.9488,2.9489,2.9494,2.9493,2.9493,0,0,0,0,0,0,2.9375,2.9378,2.9409,2.9397,2.9401,2.9422,2.9428,2.9431,2.9436,2.9455,2.9459,2.9448,2.9473,2.9476,2.9481,2.9477,2.9489,2.9489,2.9494,2.9494,2.9493,2.9473,0,0,0,0,0,0,2.9373,2.9377,2.9377,2.9397,2.9402,2.9412,2.9428,2.9432,2.9438,2.944,2.9457,2.9461,2.9473,2.948,2.9482,2.9478,2.949,2.9495,2.9494,2.9493,2.9474,2.9472,2.947,0,0,0,0,0,2.9372,2.9368,2.9376,2.938,2.9401,2.9412,2.9415,2.9431,2.9438,2.9437,2.945,2.946,2.9477,2.948,2.9482,2.9479,2.9495,2.9494,2.9493,2.9475,2.9472,2.947,0,0,0,0,0,0,2.9345,2.9371,2.938,2.9383,2.9396,2.9416,2.9416,2.9427,2.9437,2.9438,2.9456,2.946,2.9463,2.9472,2.9474,2.9478,2.9488,2.9487,2.9473,2.947,2.9468,2.9466,2.9491,0,0,0,0,0,2.934,2.9348,2.937,2.937,2.9376,2.9395,2.94,2.9412,2.9425,2.9429,2.9442,2.9453,2.9462,2.9466,2.9475,2.9476,2.948,2.9475,2.9473,2.9471,2.9471,2.9473,2.9472,2.9491,2.9491,2.9491,0,0,2.9329,2.9344,2.9347,2.9365,2.9376,2.9383,2.9399,2.9405,2.9411,2.943,2.9436,2.9446,2.946,2.9464,2.9466,2.9471,2.9467,2.947,2.9469,2.9469,2.9472,2.9471,2.9469,2.949,2.949,2.949,0,0,2.9313,2.9324,2.9327,2.9339,2.9355,2.9368,2.9369,2.9389,2.9397,2.9404,2.9419,2.9425,2.9438,2.9448,2.9455,2.9445,2.9456,2.9447,2.9436,2.9439,2.9437,2.9436,2.9433,2.9432,2.9447,2.9447,2.9447,0,2.9296,2.9308,2.9327,2.9333,2.9341,2.9361,2.9364,2.9374,2.9392,2.9397,2.9402,2.9421,2.9432,2.9439,2.9436,2.9441,2.9443,2.9445,2.9436,2.9435,2.9434,2.9432,2.9431,2.9446,2.9446,2.9446,2.9446,0,2.9288,2.9296,2.9296,2.9316,2.9323,2.9328,2.9347,2.9353,2.9364,2.9377,2.9384,2.9398,2.941,2.9413,2.9423,2.9422,2.9425,2.9433,2.9442,2.9431,2.9429,2.9428,2.9444,2.9444,2.9445,2.9445,0,0,2.9254,2.9286,2.9285,2.9295,2.9316,2.9323,2.9329,2.9343,2.9348,2.936,2.9365,2.9377,2.9386,2.9394,2.9406,2.9408,2.94,2.9416,2.9417,2.9413,2.9401,2.9395,2.9393,2.9408,2.9408,2.9407,2.94,0,2.9241,2.9254,2.9272,2.9279,2.9287,2.9307,2.9313,2.9326,2.9338,2.9347,2.936,2.9369,2.9379,2.9384,2.9387,2.94,2.9398,2.9401,2.9413,2.9413,2.9409,2.9392,2.9385,2.9378,2.9399,2.9399,2.9399,0,2.9228,2.9241,2.9249,2.9272,2.9276,2.9281,2.9296,2.9304,2.932,2.9329,2.9339,2.9352,2.9359,2.9368,2.9379,2.9381,2.9387,2.9394,2.9394,2.9396,2.9405,2.9394,2.9375,2.9374,2.9398,2.9398,2.9398,0,2.9203,2.9223,2.9231,2.9239,2.9265,2.9268,2.9279,2.9296,2.9304,2.9317,2.9322,2.9335,2.9342,2.9352,2.9368,2.9373,2.9378,2.9388,2.9385,2.9385,2.9385,2.9385,2.9367,2.9388,2.9388,2.9388,2.9388,0,2.9187,2.9192,2.9221,2.9226,2.9232,2.9253,2.9257,2.927,2.9285,2.9293,2.931,2.9317,2.9338,2.9347,2.936,2.9368,2.9371,2.9378,2.9381,2.9377,2.9376,2.9381,2.9382,2.9388,2.9388,2.9388,2.9388,0,2.9161,2.9181,2.9191,2.9216,2.9222,2.9226,2.9247,2.9252,2.9266,2.9276,2.9279,2.9301,2.9313,2.9331,2.9347,2.9356,2.9362,2.9367,2.9357,2.9359,2.9356,2.9356,2.9341,2.9341,2.9361,2.9361,2.9361,0,2.9149,2.9154,2.918,2.9187,2.9198,2.9209,2.9218,2.9239,2.9247,2.9267,2.927,2.9284,2.9296,2.9314,2.9331,2.9344,2.935,2.9344,2.9352,2.9348,2.9351,2.9351,2.9352,2.9342,2.9342,2.9342,2.9341,0,2.9127,2.9138,2.915,2.9167,2.9178,2.9191,2.9206,2.921,2.9234,2.9243,2.9256,2.9266,2.9284,2.9298,2.9314,2.9324,2.9337,2.9339,2.9339,2.9334,2.9329,2.9333,2.9352,2.9339,2.9339,2.9339,2.9339,2.934,2.9109,2.9114,2.9134,2.9148,2.9162,2.9175,2.9183,2.9199,2.921,2.9228,2.924,2.9253,2.927,2.9293,2.9304,2.9314,2.9319,2.9319,2.9319,2.9319,2.9318,2.9327,2.9317,2.9317,2.9317,2.9317,2.9317,0,2.9088,2.9103,2.9116,2.9137,2.9148,2.916,2.9178,2.9186,2.9198,2.9213,2.9226,2.9242,2.9256,2.9274,2.929,2.9294,2.93,2.9297,2.9297,2.93,2.9312,2.931,2.9292,2.9292,2.9292,2.9292,2.9292,2.9292,2.9079,2.9089,2.9102,2.912,2.9134,2.9148,2.9157,2.917,2.9183,2.9201,2.9213,2.9226,2.9243,2.926,2.9274,2.9279,2.9284,2.9279,2.9286,2.9297,2.9299,2.9301,2.93,2.928,2.928,2.9273,2.9273,2.9273]}]]